Weather in Romanovka

Russia / Saint-Petersburg and Leningrad Oblast     60°02′39″N   30°42′20″E
temp.,
°C
wind,
m/s
gust,
m/s
humid.,
%
clouds,
%
prec.,
mm/h
press.,
hPa
HPBL,
m
12 may, wed
wed1200:00+13s26804 0.0 1023108
03:00+11s28884 0.0 1023148
06:00+12sse38830 0.0 1023179
09:00+18s36550 0.0 1023416
12:00+22s46460 0.0 10221066
15:00+25s46390 0.0 10221754
18:00+24s35440 0.0 10211810
21:00+18ssw01690 0.0 102011
13 may, thu
thu1300:00+17ne237151 0.0 101946
03:00+13e24810 0.0 101875
06:00+14ese312805 0.0 1018397
09:00+18se476769 0.0 10171006
12:00+18sse476097 0.1 10161551
15:00+21sse46345 0.1 10152293
18:00+21se35365 0.0 10142213
21:00+15e226043 0.0 101313
14 may, fri
fri1400:00+13ne2262100 0.0 101242
03:00+12ene1186100 0.9 101125
06:00+12w1395100 2.2 1010106
09:00+13ssw1392100 2.4 1011237
12:00+17ssw356949 0.1 1011953
15:00+20ssw35402 0.4 10111896
18:00+19s455218 0.0 10111429
21:00+14sse2475100 0.0 101162
15 may, sat
sat1500:00+12se228199 0.0 101115
03:00+11e258610 0.0 101182
06:00+11e31082100 0.0 1010257
09:00+14e31179100 0.6 1008455
12:00+16ese4981100 1.0 1008692
15:00+16ene2589100 3.6 1006328
18:00+17ene128361 0.5 1005405
21:00+13n229862 2.8 100436
16 may, sun
sun1600:00+11n119887 0.0 100312
03:00+11wnw1198100 0.0 100327
06:00+12w2698100 0.0 1003218
09:00+12w3795100 0.0 1005348
12:00+13w489099 0.0 1007535
15:00+11w41291100 0.0 1009624
18:00+12w5138281 0.0 1010650
21:00+10wsw4128246 0.0 1012478